Delta, CO

10:07 AM MST on December 07, 2016 (GMT -0700)
Delta

Weather History for KAJZ - May, 2013

Change the Weather History Date:

Wednesday, May 15, 2013

  Actual Average (KMTJ) Record (KMTJ)
Temperature  
Mean Temperature 71 °F 58 °F  
Max Temperature 85 °F 73 °F 84 °F (1997)
Min Temperature 57 °F 43 °F 30 °F (1998)
Degree Days  
Heating Degree Days 0 7  
Month to date heating degree days 143  
Since 1 July heating degree days 6081  
Cooling Degree Days 6 0  
Month to date cooling degree days 0  
Year to date cooling degree days 0  
Growing Degree Days 21 (Base 50)    
Moisture  
Dew Point 39 °F    
Average Humidity 35    
Maximum Humidity 58    
Minimum Humidity 14    
Precipitation  
Precipitation 0.00 in 0.04 in 0.27 in (2015)
Month to date precipitation 0.68  
Year to date precipitation 3.90  
Sea Level Pressure  
Sea Level Pressure 29.97 in    
Wind  
Wind Speed 7 mph (ENE)    
Max Wind Speed 21 mph    
Max Gust Speed 30 mph    
Visibility 10 miles    
Events Rain , Thunderstorm    
T = Trace of Precipitation, MM = Missing Value Source: NWS Daily Summary

Daily Weather History Graph

Daily Weather History Graph

Search for Another Location

Airport or City:

Trip Planner

Search our weather history database for the weather conditions in past years. The results will help you decide how hot, cold, wet, or windy it might be!

Date:

Astronomy

May. 15, 2013 Rise Set
Actual Time 5:59 AM MDT 8:18 PM MDT
Civil Twilight 5:29 AM MDT 8:48 PM MDT
Nautical Twilight 4:52 AM MDT 9:25 PM MDT
Astronomical Twilight 4:12 AM MDT 10:05 PM MDT
Moon 10:37 AM MDT (5/15) 12:06 AM MDT (5/15)
Length of Visible Light 15h 18m
Length of Day
14h 18m
Waxing Crescent, 27% of the Moon is Illuminated
May 15
Waxing Crescent
May 17
First Quarter
May 24
Full
May 31
Last Quarter
Jun 8
New

Hourly Weather History & Observations

Time (MDT) Temp. Dew Point Humidity Pressure Visibility Wind Dir Wind Speed Gust Speed Precip Events Conditions
12:15 AM 67.1 °F 41.4 °F 39% 30.04 in 10.0 mi NNE 10.4 mph - N/A   Clear
12:35 AM 66.7 °F 41.0 °F 39% 30.04 in 10.0 mi NNE 9.2 mph - N/A   Clear
12:55 AM 66.0 °F 41.5 °F 41% 30.05 in 10.0 mi NNE 6.9 mph - N/A   Clear
1:15 AM 63.5 °F 41.5 °F 45% 30.04 in 10.0 mi ENE 4.6 mph - N/A   Clear
1:35 AM 63.3 °F 41.7 °F 45% 30.03 in 10.0 mi NE 4.6 mph - N/A   Clear
1:55 AM 62.2 °F 41.0 °F 46% 30.03 in 10.0 mi ENE 9.2 mph - N/A   Clear
2:15 AM 62.1 °F 41.0 °F 46% 30.03 in 10.0 mi NE 8.1 mph - N/A   Clear
2:35 AM 61.3 °F 41.2 °F 48% 30.03 in 10.0 mi ENE 6.9 mph - N/A   Clear
2:55 AM 59.5 °F 41.5 °F 51% 30.03 in 10.0 mi East 5.8 mph - N/A   Clear
3:15 AM 59.2 °F 42.1 °F 53% 30.03 in 10.0 mi East 3.5 mph - N/A   Clear
3:35 AM 59.0 °F 41.4 °F 52% 30.03 in 10.0 mi ESE 3.5 mph - N/A   Clear
3:55 AM 57.9 °F 42.1 °F 56% 30.03 in 10.0 mi NNE 8.1 mph - N/A   Clear
4:15 AM 59.2 °F 43.0 °F 55% 30.03 in 10.0 mi NNE 8.1 mph - N/A   Clear
4:35 AM 58.3 °F 42.1 °F 55% 30.03 in 10.0 mi NNE 9.2 mph - N/A   Clear
4:55 AM 59.0 °F 41.4 °F 52% 30.03 in 10.0 mi NE 8.1 mph - N/A   Clear
5:15 AM 58.5 °F 42.4 °F 55% 30.03 in 10.0 mi NNE 8.1 mph - N/A   Clear
5:35 AM 58.3 °F 42.3 °F 55% 30.03 in 10.0 mi NNE 8.1 mph - N/A   Clear
5:55 AM 58.1 °F 42.3 °F 56% 30.04 in 10.0 mi NNE 6.9 mph - N/A   Clear
6:15 AM 57.2 °F 42.4 °F 58% 30.04 in 10.0 mi NNE 3.5 mph - N/A   Clear
6:35 AM 59.0 °F 42.1 °F 53% 30.04 in 10.0 mi NNE 5.8 mph - N/A   Clear
6:55 AM 61.0 °F 43.0 °F 52% 30.04 in 10.0 mi ENE 4.6 mph - N/A   Clear
7:15 AM 63.3 °F 40.5 °F 43% 30.04 in 10.0 mi ENE 6.9 mph - N/A   Clear
7:35 AM 63.5 °F 40.5 °F 43% 30.05 in 10.0 mi East 5.8 mph - N/A   Clear
7:55 AM 63.7 °F 41.2 °F 44% 30.05 in 10.0 mi East 6.9 mph - N/A   Clear
8:15 AM 65.5 °F 41.0 °F 41% 30.05 in 10.0 mi East 5.8 mph - N/A   Clear
8:35 AM 66.6 °F 39.7 °F 37% 30.05 in 10.0 mi East 6.9 mph - N/A   Clear
8:55 AM 68.0 °F 39.9 °F 36% 30.04 in 10.0 mi ENE 5.8 mph - N/A   Clear
9:15 AM 69.6 °F 39.6 °F 33% 30.04 in 10.0 mi East 6.9 mph - N/A   Clear
9:35 AM 70.5 °F 39.7 °F 33% 30.04 in 10.0 mi East 5.8 mph - N/A   Clear
9:55 AM 72.0 °F 39.0 °F 30% 30.03 in 10.0 mi ESE 3.5 mph - N/A   Clear
10:15 AM 73.8 °F 38.7 °F 28% 30.02 in 10.0 mi ESE 4.6 mph - N/A   Clear
10:35 AM 73.9 °F 38.7 °F 28% 30.02 in 10.0 mi East 4.6 mph - N/A   Clear
10:55 AM 76.6 °F 39.0 °F 26% 30.01 in 10.0 mi East 3.5 mph - N/A   Clear
11:15 AM 77.9 °F 38.3 °F 24% 30.00 in 10.0 mi Calm Calm - N/A   Clear
11:35 AM 79.2 °F 37.2 °F 22% 29.99 in 10.0 mi SE 6.9 mph - N/A   Clear
11:55 AM 81.0 °F 37.6 °F 21% 29.98 in 10.0 mi SSE 4.6 mph - N/A   Clear
12:15 PM 81.9 °F 36.0 °F 19% 29.96 in 10.0 mi Calm Calm - N/A   Clear
12:35 PM 82.4 °F 34.7 °F 18% 29.95 in 10.0 mi SSE 3.5 mph - N/A   Clear
12:55 PM 82.6 °F 32.7 °F 17% 29.94 in 10.0 mi SSW 5.8 mph - N/A   Clear
1:15 PM 82.2 °F 33.3 °F 17% 29.93 in 10.0 mi SW 4.6 mph - N/A   Clear
1:35 PM 81.5 °F 32.5 °F 17% 29.93 in 10.0 mi SW 8.1 mph - N/A   Clear
1:55 PM 81.0 °F 34.0 °F 18% 29.93 in 10.0 mi West 20.7 mph 29.9 mph N/A   Scattered Clouds
2:15 PM 79.7 °F 31.8 °F 18% 29.93 in 10.0 mi NW 5.8 mph 18.4 mph N/A Rain Light Rain
2:35 PM 83.8 °F 32.5 °F 16% 29.91 in 10.0 mi West 6.9 mph 10.4 mph N/A Thunderstorm Clear
2:55 PM 84.9 °F 30.6 °F 14% 29.90 in 10.0 mi NW 10.4 mph 16.1 mph N/A   Clear
3:15 PM 85.5 °F 31.8 °F 15% 29.89 in 10.0 mi NE 10.4 mph 18.4 mph N/A   Clear
3:35 PM 84.7 °F 30.7 °F 14% 29.89 in 10.0 mi SSW 8.1 mph - N/A   Mostly Cloudy
3:55 PM 82.8 °F 28.4 °F 14% 29.89 in 10.0 mi WSW 15.0 mph 20.7 mph N/A   Overcast
4:15 PM 80.4 °F 30.9 °F 17% 29.88 in 10.0 mi Calm Calm - N/A   Mostly Cloudy
4:35 PM 81.7 °F 29.7 °F 15% 29.89 in 10.0 mi Calm Calm - N/A Thunderstorm Scattered Clouds
4:55 PM 77.9 °F 40.3 °F 26% 29.90 in 10.0 mi ESE 15.0 mph 24.2 mph N/A   Overcast
5:15 PM 77.2 °F 41.4 °F 28% 29.89 in 10.0 mi ESE 17.3 mph 24.2 mph N/A   Mostly Cloudy
5:35 PM 76.6 °F 38.5 °F 25% 29.89 in 10.0 mi ESE 8.1 mph 20.7 mph N/A   Scattered Clouds
5:55 PM 76.3 °F 39.0 °F 26% 29.91 in 10.0 mi Calm Calm - N/A Thunderstorm Mostly Cloudy
6:15 PM 76.3 °F 38.5 °F 26% 29.90 in 10.0 mi NE 11.5 mph 16.1 mph N/A Thunderstorm Thunderstorm
6:35 PM 75.2 °F 37.9 °F 26% 29.90 in 10.0 mi NE 9.2 mph - N/A   Clear
6:55 PM 75.2 °F 39.0 °F 27% 29.90 in 10.0 mi North 8.1 mph - N/A   Scattered Clouds
7:15 PM 75.4 °F 39.7 °F 28% 29.89 in 10.0 mi North 9.2 mph - N/A Thunderstorm Thunderstorm
7:35 PM 75.0 °F 37.6 °F 26% 29.89 in 10.0 mi NNW 4.6 mph - N/A Thunderstorm Mostly Cloudy
7:55 PM 74.5 °F 37.8 °F 26% 29.87 in 10.0 mi ENE 11.5 mph - N/A   Scattered Clouds
8:15 PM 72.7 °F 37.6 °F 28% 29.88 in 10.0 mi East 8.1 mph - N/A   Clear
8:35 PM 70.3 °F 39.2 °F 32% 29.89 in 10.0 mi NE 5.8 mph - N/A   Clear
8:55 PM 69.3 °F 43.3 °F 39% 29.90 in 10.0 mi East 8.1 mph - N/A   Clear
9:15 PM 68.4 °F 43.0 °F 40% 29.90 in 10.0 mi East 8.1 mph - N/A Thunderstorm Clear
9:35 PM 67.1 °F 43.3 °F 42% 29.91 in 10.0 mi ENE 8.1 mph - N/A   Clear
9:55 PM 65.8 °F 44.4 °F 46% 29.92 in 10.0 mi Calm Calm - N/A Thunderstorm Clear
10:15 PM 65.1 °F 43.0 °F 45% 29.93 in 10.0 mi Calm Calm - N/A   Clear
10:35 PM 63.0 °F 42.4 °F 47% 29.94 in 10.0 mi North 4.6 mph - N/A   Clear
10:55 PM 64.0 °F 41.2 °F 43% 29.95 in 10.0 mi SSE 3.5 mph - N/A   Clear
11:15 PM 64.4 °F 41.4 °F 43% 29.94 in 10.0 mi Calm Calm - N/A   Clear
11:35 PM 60.6 °F 44.2 °F 55% 29.94 in 10.0 mi NNE 3.5 mph - N/A   Clear
11:55 PM 61.9 °F 39.7 °F 44% 29.95 in 10.0 mi East 4.6 mph - N/A   Clear